This is the latest recevied weather packets stored in our database for station/object DK4MDA-13. If no packets are shown the sender has not sent any weather packets the latest 1 day(s).
| Time | Temp. | Humidity | Pressure | Rain* | Wind** | Luminosity | Snow |
|---|---|---|---|---|---|---|---|
| 1777944429 | 13.33° C | 94% | 1011.3 hPa | 0 mm | 0.45 m/s, 26° | - | - |
| 1777944129 | 13.33° C | 94% | 1011.3 hPa | 0 mm | 0.89 m/s, 26° | - | - |
| 1777943829 | 13.33° C | 94% | 1011.4 hPa | 0 mm | 0.89 m/s, 26° | - | - |
| 1777943529 | 13.33° C | 94% | 1011.4 hPa | 0 mm | 0.45 m/s, 227° | - | - |
| 1777943229 | 13.33° C | 93% | 1011.2 hPa | 0 mm | 0 m/s | - | - |
| 1777942929 | 13.33° C | 94% | 1011.3 hPa | 0 mm | 0 m/s | - | - |
| 1777942629 | 13.33° C | 93% | 1011.1 hPa | 0 mm | 0 m/s | - | - |
| 1777942329 | 13.33° C | 93% | 1011.1 hPa | 0 mm | 0.45 m/s, 26° | - | - |
| 1777942029 | 13.33° C | 93% | 1011 hPa | 0 mm | 0.45 m/s, 767° | - | - |
| 1777941729 | 13.33° C | 93% | 1011.1 hPa | 0 mm | 0.45 m/s, 767° | - | - |
| 1777941429 | 13.33° C | 93% | 1011.1 hPa | 0 mm | 0.45 m/s, 26° | - | - |
| 1777941129 | 13.33° C | 93% | 1011.2 hPa | 0 mm | 0.45 m/s, 767° | - | - |
| 1777940829 | 13.33° C | 93% | 1011.3 hPa | 0.25 mm | 0.45 m/s, 767° | - | - |
| 1777940529 | 13.33° C | 93% | 1011.3 hPa | 0.25 mm | 0.89 m/s, 26° | - | - |
| 1777940229 | 13.33° C | 93% | 1011.5 hPa | 0.25 mm | 0.89 m/s, 26° | - | - |
| 1777939929 | 13.33° C | 93% | 1011.5 hPa | 0.25 mm | 0.45 m/s, 359° | - | - |
| 1777939629 | 13.33° C | 93% | 1011.6 hPa | 0.51 mm | 0.45 m/s, 1° | - | - |
| 1777939329 | 13.33° C | 93% | 1011.6 hPa | 0.51 mm | 0.45 m/s, 359° | - | - |
| 1777939030 | 13.33° C | 93% | 1011.8 hPa | 0.51 mm | 1.34 m/s, 26° | - | - |
| 1777938729 | 13.33° C | 93% | 1011.5 hPa | 0.51 mm | 1.34 m/s, 358° | - | - |
| 1777938438 | 13.33° C | 93% | 1011.5 hPa | 0.76 mm | 1.79 m/s, 7° | - | - |
| 1777938130 | 13.89° C | 93% | 1011.4 hPa | 0.76 mm | 1.79 m/s, 26° | - | - |
| 1777937830 | 13.89° C | 93% | 1011.5 hPa | 1.27 mm | 1.79 m/s, 26° | - | - |
| 1777937530 | 13.89° C | 93% | 1011.6 hPa | 1.78 mm | 1.79 m/s, 26° | - | - |
| 1777937229 | 13.89° C | 93% | 1011.8 hPa | 2.54 mm | 1.34 m/s, 26° | - | - |
* Rain latest hour (hover to see other rain measurements)
** Current wind speed in m/s (hover to see current wind gust speed)